Regional Weather Roundup
Issued by NWS

Home | Current Version | Previous Version | Graphics & Text | Print | Product List | Glossary On
Versions: 1 2 3 4 5 6 7 8 9 10 11 12 13 14 15 16 17 18 19 20 21 22 23 24 25 26 27 28 29 30 31 32 33 34 35 36 37 38 39 40 41 42 43 44 45 46 47 48 49 50
000
ASUS43 KDMX 252007
RWRIA

WEATHER ROUNDUP FOR IOWA
NATIONAL WEATHER SERVICE DES MOINES IA
300 PM CDT SAT APR 25 2015

NOTE: "FAIR" INDICATES FEW OR NO CLOUDS BELOW 12,000 FEET WITH NO
SIGNIFICANT WEATHER AND/OR OBSTRUCTIONS TO VISIBILITY.

* - THESE STATIONS ARE NOT NWS STATIONS...THUS NOT UNDER NWS
QUALITY CONTROL.  THEY ALSO DO NOT REPORT WEATHER SUCH
AS PRECIPITATION OR FOG.

IAZ001>003-012>014-020>022-031>034-043>046-252100-
   NORTHWEST IOWA

CITY           SKY/WX    TMP DP  RH WIND       PRES   REMARKS
CARROLL *      CLOUDY    50  45  81 E18       29.72R
CHEROKEE *     PTSUNNY   57  43  58 E16       29.75S
DENISON *      CLOUDY    50  48  93 NE15      29.71R
LE MARS *      PTSUNNY   59  43  55 NE15      29.77R
ORANGE CITY *  SUNNY     57  41  54 E12G23    29.77R
SHELDON *      MOSUNNY   59  41  51 E16G24    29.76R
SIOUX CITY     CLOUDY    58  42  55 E14       29.75R
SPENCER        CLOUDY    57  42  57 NE20      29.78R
STORM LAKE *   CLOUDY    54  43  66 NE17G24   29.76R
$$

IAZ055>058-069>071-079>083-090>094-252100-
   SOUTHWEST IOWA

CITY           SKY/WX    TMP DP  RH WIND       PRES   REMARKS
ATLANTIC *     CLOUDY    48  46  93 NE13G23   29.70R
AUDUBON *      MOSUNNY   50  45  81 NE17      29.72R
CLARINDA *     CLOUDY    48  46  93 NE12G18   29.69R
COUNCIL BLFS * CLOUDY    50  50 100 NE15      29.70R
CRESTON *      CLOUDY    46  46 100 NE18G25   29.67R
HARLAN  *      CLOUDY    50  50 100 NE17      29.73R
LAMONI         CLOUDY    48  44  86 NE18      29.64R
RED OAK *      CLOUDY    50  48  93 NE16G24   29.68S
SHENANDOAH *   CLOUDY    50  48  93 NE18G24   29.67S
$$

IAZ047>049-059>061-072>074-084-252100-
   CENTRAL IOWA

CITY           SKY/WX    TMP DP  RH WIND       PRES   REMARKS
AMES           CLOUDY    50  43  77 NE16G25   29.72R
ANKENY *       CLOUDY    50  45  81 NE16      29.70R
CHARITON *     CLOUDY    46  46 100 NE15G23   29.65R FOG
DES MOINES     CLOUDY    49  44  83 NE16      29.69R
GRINNELL*      CLOUDY    48  45  87 E15       29.70R
KNOXVILLE *    CLOUDY    48  43  81 NE16G24   29.66R
MARSHALLTOWN   CLOUDY    51  44  77 E13       29.71R
PELLA *        CLOUDY    48  48 100 NE8G18    29.68R FOG
PERRY *        CLOUDY    50  45  81 NE16      29.71R
$$

IAZ004>006-015-016-023>025-035-036-252100-
   NORTH CENTRAL IOWA

CITY           SKY/WX    TMP DP  RH WIND       PRES   REMARKS
ALGONA *       CLOUDY    54  41  62 NE20      29.77R
CLARION *      CLOUDY    55  41  58 NE20G29   29.75R
ESTHERVILLE    CLOUDY    53  42  66 E16       29.78S
FORT DODGE *   CLOUDY    55  45  67 NE18G24   29.75R
MASON CITY     CLOUDY    54  40  59 E18       29.78R
FOREST CITY *  PTSUNNY   54  41  62 E15G22    29.78R
IOWA FALLS *   CLOUDY    54  41  62 NE14G23   29.74R
$$

IAZ007>011-017>019-026>030-037>042-050>054-066-252100-
   NORTHEAST IOWA

CITY           SKY/WX    TMP DP  RH WIND       PRES   REMARKS
CEDAR RAPIDS   CLOUDY    50  44  80 E21       29.68R
CHARLES CITY * CLOUDY    54  39  58 E15G26    29.77R
CLINTON *      PTSUNNY  N/A N/A N/A NE25G35   29.70R
DECORAH *      CLOUDY    52  37  58 E14G21    29.77R
DUBUQUE        CLOUDY    49  39  68 E24G37    29.71S
MONTICELLO *   CLOUDY    50  45  81 NE16G28   29.71R
OELWEIN *      CLOUDY    50  39  66 NE20G26   29.74R
WATERLOO       CLOUDY    53  40  61 E22G30    29.74R
$$

IAZ064-065-067-068-078-252100-
   EAST CENTRAL IOWA

CITY           SKY/WX    TMP DP  RH WIND       PRES   REMARKS
DAVENPORT      CLOUDY    50  43  77 NE22G28   29.68R
IOWA CITY      CLOUDY    50  45  83 E13       29.70R
MT. PLEASANT * CLOUDY    48  48 100 NE15G22   29.64R
MUSCATINE *    CLOUDY    50  45  81 NE7       29.68R
QUAD CITIES    CLOUDY    50  43  77 E28G33    29.66R
$$

IAZ062-063-075>077-085>089-095>099-252100-
   SOUTHEAST IOWA

CITY           SKY/WX    TMP DP  RH WIND       PRES   REMARKS
BURLINGTON     CLOUDY    49  46  90 NE16      29.62R
FAIRFIELD *    CLOUDY    48  46  93 NE16G23   29.65R
FORT MADISON * CLOUDY    48  46  93 NE13      29.62R
KEOKUK *       CLOUDY    52  48  87 NE13G24   29.59R
OSKALOOSA *    CLOUDY    46  45  93 NE15      29.67R FOG
CENTERVILLE *  CLOUDY    48  48 100 NE16      29.63R
OTTUMWA        CLOUDY    48  45  89 NE17      29.65R
WASHINGTON *   CLOUDY    48  48 100 NE15      29.67R
$$

ABBREVIATIONS USED IN REMARKS
   TC - TEMPERATURES IN CELSIUS
  WCI - WIND CHILL INDEX
   HX - HEAT INDEX
  VSB - VISIBILITY
$$



USA.gov is the U.S. government's official web portal to all federal, state and local government web resources and services.